Aeroporto :
LOGIN :

Iscrizione | Disclaimer

   EN    FR    IT 

 










Sommario :    VFR   VFR Marginale   IFR   IFR Intensivo   IFR Molto Intensivo
Visibilità : 
Base nubi : 
>= 8 km
>= 3000ft
5 / 8 km
1000 / 3000 ft
1500m / 5 km
500 / 1000 ft
800 / 1500m
200 / 500 ft
< 800m
< 200 ft
Simboli :   Temporali  Nebbia  Neve Forte  Precipitazioni Forti  Vento > 20 kt
SIGMETs :   Varie  Temporali  Ghiacco  Turbolenza  Onda orograficha  Ceneri Vulcaniche






- Altitudine del aeroporto : 386 ft
- Codice IATA : QOE


ETNN - Nörvenich Airforce Base

ULTIMO METAR :
  • 272120Z 06002KT 9999 FEW100 SCT300 12/11 Q1021 BLU+

METARs OBSOLETI :
  • 272020Z VRB03KT 9999 SCT100 13/11 Q1020 BLU+
  • 271920Z 23005KT 9999 BKN080 14/11 Q1019 BLU

TAF TAF ETNN
Valido dal 27 a 14 ore il 27 a 23 ore UTC


271322Z 2714/2723 18010KT 8000 -RA SCT020 BKN080
TEMPO 2714/2720 22010KT 8000 RA SCT020 BKN040 BY ETGL



MetMap, La meteo Aeronautica in un colpo d'occhio ! - Copyright ORBIFLY Dicembre 2007 - Disclaimer

ORBIFLY MET'MAP TEAM :

Programmazione e sviluppo : Alexandra Zaïnal
Concezione : Baudouin d'Aumeries
Aiuto per la programmazione : Marc-Olivier Méhu
Supporto tecnico e logistico : Manuel Goepfert
Aiuto per la traduzione : Arnaldo La Scala

Contatto : metmap@orbifly.com




FONTI E CREDITI :

   NOAA